NOAA-16
1 26536U 00055A 12284.61908938 .00000208 00000-0 13648-3 0 09268
2 26536 099.0818 328.4534 0011393 117.9317 242.3025 14.12789759621330
NOAA-17
1 27453U 02032A 12284.78105128 .00000062 00000-0 44186-4 0 08698
2 27453 098.3307 305.9411 0011910 172.9359 187.1960 14.24491228535219
NOAA-18
1 28654U 05018A 12284.66529438 .00000378 00000-0 23255-3 0 03508
2 28654 099.0615 243.7975 0014025 186.8758 173.2210 14.11711721380855
NOAA-19
1 33591U 09005A 12284.69919545 .00000022 00000-0 36272-4 0 05387
2 33591 098.8731 223.1024 0015050 056.0809 304.1784 14.11396075189307
HUBBLE
1 20580U 90037B 12284.95396560 .00001913 00000-0 12687-3 0 862
2 20580 028.4694 105.7673 0003248 206.4993 153.5499 15.02877865 32166
ISS
1 25544U 98067A 12285.86180905 .00017083 00000-0 29765-3 0 4519
2 25544 051.6476 261.6894 0017769 155.8664 287.0425 15.50690175796146
CO-58
1 28895U 05043F 12285.80871761 .00000697 00000-0 15149-3 0 2998
2 28895 097.8982 146.8563 0018605 141.0210 219.2346 14.60781092370688
FALCON
1 30776U 07006E 12284.45950629 .00004615 00000-0 29286-3 0 4567
2 30776 035.4331 292.3339 0002642 282.3180 077.7241 15.08431906307660
MAST
1 31126U 07012K 12285.57419685 .00000520 00000-0 12540-3 0 5792
2 31126 097.8758 289.8825 0094656 107.6566 253.4991 14.54279985291180
CAPE1
1 31130U 07012P 12285.70616127 .00000522 00000-0 12795-3 0 5897
2 31130 097.8874 286.3365 0102237 121.0660 240.0599 14.53097592290697
COMPASS
1 32787U 08021E 12284.68962657 .00002357 00000-0 28575-3 0 04345
2 32787 097.7885 343.4184 0015926 046.2792 313.9716 14.84449008240944
AAUSAT2
1 32788U 08021F 12284.76768667 .00002098 00000-0 25283-3 0 04266
2 32788 097.7868 343.9424 0015556 048.5144 311.7406 14.84806935240985
DO-64
1 32789U 08021G 12284.89009309 .00004529 00000-0 51547-3 0 04434
2 32789 097.8015 346.5546 0015047 041.8360 318.3976 14.86617205241063
CO-66
1 32791U 08021J 12284.72749741 .00001893 00000-0 23445-3 0 04235
2 32791 097.7868 343.0983 0016352 047.3332 312.9283 14.83784104240877
RS-30
1 32953U 08025A 12285.83658584 .00000010 00000-0 00000 0 0 2221
2 32953 082.5018 222.5909 0020356 054.3672 305.9304 12.43028389199058
PHARMSAT
1 35002U 09028B 12226.86484473 .07728342 73476-5 57159-3 0 789
2 35002 040.4341 050.6671 0012079 300.9773 059.0492 16.39309245183554
METEOR-M
1 35865U 09049A 12285.75204511 -.00000071 00000-0 -12443-4 0 8607
2 35865 098.6401 337.8104 0003372 076.1729 283.9816 14.21871105159169
RS-38
1 35869U 09049E 12285.75559471 -.00000013 00000-0 13461-4 0 8447
2 35869 098.6356 337.7895 0005601 076.7746 283.4003 14.22091646159180
JUGNU
1 37839U 11058B 12285.62658424 .00000620 00000-0 19019-3 0 2455
2 37839 019.9595 012.7939 0018869 066.4963 293.7475 14.12088381 51725
SRMSAT
1 37841U 11058D 12285.62740874 .00000264 00000-0 00000 0 0 2471
2 37841 019.9689 019.9417 0012067 028.2135 331.9040 14.10170178 51641
RAX-2
1 37853U 11061D 12284.88959903 .00004825 00000-0 38204-3 0 3097
2 37853 101.7043 017.7883 0243561 020.7592 340.3293 14.81026950 51516
AUBIESAT
1 37854U 11061E 12284.94652981 .00005241 00000-0 40808-3 0 03109
2 37854 101.7061 018.2825 0243746 019.9923 341.0622 14.81492548051527
HRBE
1 37855U 11061F 12285.85126164 .00004771 00000-0 37270-3 0 3061
2 37855 101.7085 019.5155 0244899 017.4034 343.5372 14.81309209 51654
RS-39
1 38051U 11062C 12285.86790509 .00009744 00000-0 38196-3 0 7867
2 38051 051.6354 323.0631 0013972 093.1452 263.4998 15.26317073 39779
E-STAR
1 38079U 12006C 12285.72383750 .00049414 00000-0 11872-2 0 5662
2 38079 069.4773 047.8423 0704377 099.9667 268.1603 14.23649968 34114
GOLIAT
1 38085U 12006J 12285.73218347 .00049771 00000-0 12049-2 0 5336
2 38085 069.4832 048.5308 0709329 100.4081 267.7693 14.22440169 34099
HORYU-2
1 38340U 12025D 12285.82757397 .00001646 00000-0 28108-3 0 1906
2 38340 098.1852 225.8847 0012393 326.2977 033.7458 14.70257183 21611
RS-40
1 38736U 12041D 12285.56721265 .00000010 00000-0 00000 0 0 774
2 38736 082.4771 310.1484 0019485 147.0477 213.1821 12.42646795 9368
PROITERES
1 38756U 12047B 12285.87837604 .00000812 00000-0 13175-3 0 1199
2 38756 098.2815 352.0513 0013262 171.6518 188.4915 14.73908261 4816
AENEAS
1 38760U 0 12285.63418111 .00004663 00000-0 43425-3 0 00392
2 38760 064.6742 315.7090 0218665 281.5750 225.8995 14.79105703004085
OBJECT D
1 38761U 0 12285.63398458 .00003082 00000-0 29125-3 0 00344
2 38761 064.6739 315.6908 0219640 281.6033 237.4379 14.79182964004087
OBJECT E
1 38762U 0 12285.63371359 .00003677 00000-0 34386-3 0 00341
2 38762 064.6748 315.6866 0219416 281.3263 240.4842 14.79239544004080
OBJECT F
1 38763U 0 12285.63372642 .00003045 00000-0 28749-3 0 00321
2 38763 064.6740 315.6834 0219648 281.5472 242.2846 14.79241291003927
OBJECT G
1 38764U 0 12285.63331274 .00002834 00000-0 26880-3 0 00327
2 38764 064.6733 315.6795 0219569 281.6381 240.8814 14.79251868004086
OBJECT H
1 38765U 0 12285.63079299 .00003771 00000-0 35169-3 0 00370
2 38765 064.6737 315.6833 0219324 281.5901 230.2625 14.79307956004083
OBJECT J
1 38766U 0 12285.62829259 .00003206 00000-0 30075-3 0 00306
2 38766 064.6721 315.6698 0219494 281.5491 228.0895 14.79395065004080
1998067CN
1 38852U 98067CN 12284.94161481 .00034078 00000-0 56652-3 0 00087
2 38852 051.6480 266.2171 0019250 144.9617 215.2645 15.51537498000919
1998067CP
1 38853U 98067CP 12284.94147275 .00040671 00000-0 67425-3 0 00078
2 38853 051.6475 266.2191 0014925 157.2300 202.9281 15.51613332000973
1998067CQ
1 38854U 98067CQ 12284.87666330 .00052033 00000-0 85465-3 0 00067
2 38854 051.6479 266.5332 0014399 152.6575 207.5187 15.51770880000963
1998067CR
1 38855U 98067CR 12284.94118099 .00049463 00000-0 81414-3 0 00085
2 38855 051.6493 266.2168 0014236 155.7883 204.3806 15.51737119000860
